TVS1KT LKPR-LDSP

Flight info

Callsign TVS1KT
Flight time 1h 21m
Altitude 35000
Route VOZ DCT PISAM DCT PETOV DCT NIVES DCT NUPSO
Aircraft B738/M-SDE2E3FGHIRWXY/LB1

Departure

Time 2026-05-07 11:56
Airport Václav Havel Airport Prague (LKPR)

Arrival

Time 2026-05-07 13:17
Airport Split Saint Jerome Airport (LDSP)
Time Latitude Longitude Altitude Speed Heading
2026-05-07 11:25 50.10411 14.26632 1172 ft 0 kts 34°
2026-05-07 11:45 50.10410 14.26631 1172 ft 1 kts 34°
2026-05-07 11:45 50.10398 14.26617 1172 ft 2 kts 46°
2026-05-07 11:45 50.10390 14.26598 1172 ft 2 kts 70°
2026-05-07 11:46 50.10387 14.26575 1172 ft 2 kts 92°
2026-05-07 11:46 50.10390 14.26552 1172 ft 2 kts 115°
2026-05-07 11:46 50.10394 14.26541 1172 ft 1 kts 127°
2026-05-07 11:46 50.10397 14.26536 1172 ft 0 kts 124°
2026-05-07 11:49 50.10390 14.26551 1172 ft 3 kts 123°
2026-05-07 11:49 50.10367 14.26601 1172 ft 8 kts 136°
2026-05-07 11:49 50.10336 14.26604 1172 ft 0 kts 232°
2026-05-07 11:50 50.10312 14.26578 1172 ft 8 kts 213°
2026-05-07 11:50 50.10238 14.26538 1172 ft 14 kts 152°
2026-05-07 11:50 50.10158 14.26685 1173 ft 19 kts 125°
2026-05-07 11:50 50.10081 14.26847 1178 ft 18 kts 127°
2026-05-07 11:51 50.10003 14.27007 1183 ft 18 kts 126°
2026-05-07 11:51 50.09923 14.27172 1188 ft 19 kts 127°
2026-05-07 11:51 50.09829 14.27351 1188 ft 23 kts 134°
2026-05-07 11:51 50.09712 14.27528 1188 ft 23 kts 136°
2026-05-07 11:52 50.09596 14.27707 1188 ft 23 kts 135°
2026-05-07 11:52 50.09486 14.27876 1188 ft 22 kts 135°
2026-05-07 11:52 50.09376 14.28041 1188 ft 21 kts 135°
2026-05-07 11:52 50.09296 14.28168 1188 ft 7 kts 134°
2026-05-07 11:53 50.09269 14.28210 1188 ft 5 kts 135°
2026-05-07 11:53 50.09238 14.28255 1188 ft 7 kts 143°
2026-05-07 11:53 50.09211 14.28278 1188 ft 4 kts 159°
2026-05-07 11:53 50.09157 14.28275 1188 ft 8 kts 204°
2026-05-07 11:54 50.09108 14.28219 1188 ft 8 kts 217°
2026-05-07 11:54 50.09063 14.28155 1188 ft 9 kts 257°
2026-05-07 11:54 50.09080 14.28096 1188 ft 0 kts 308°
2026-05-07 11:55 50.09103 14.28051 1188 ft 18 kts 307°
2026-05-07 11:55 50.09314 14.27610 1188 ft 81 kts 307°
2026-05-07 11:55 50.09767 14.26676 1184 ft 133 kts 307°
2026-05-07 11:56 50.10412 14.25344 1177 ft 173 kts 308°
2026-05-07 11:56 50.11123 14.23835 1667 ft 174 kts 302°
2026-05-07 11:56 50.11868 14.22299 2230 ft 179 kts 303°
2026-05-07 11:56 50.12611 14.20803 2864 ft 178 kts 304°
2026-05-07 11:57 50.13364 14.19263 3479 ft 177 kts 303°
2026-05-07 11:57 50.14099 14.17729 4024 ft 180 kts 302°
2026-05-07 11:57 50.14845 14.16126 4504 ft 187 kts 302°
2026-05-07 11:57 50.15629 14.14471 4954 ft 196 kts 303°
2026-05-07 11:58 50.16454 14.12727 5417 ft 204 kts 303°
2026-05-07 11:58 50.17328 14.10872 5775 ft 219 kts 303°
2026-05-07 11:58 50.18115 14.08817 6296 ft 224 kts 289°
2026-05-07 11:58 50.18372 14.06416 6614 ft 236 kts 258°
2026-05-07 11:59 50.17724 14.04033 7116 ft 244 kts 234°
2026-05-07 11:59 50.16510 14.02128 7505 ft 260 kts 217°
2026-05-07 11:59 50.15015 14.00500 8185 ft 264 kts 216°
2026-05-07 11:59 50.13423 13.99069 8921 ft 267 kts 204°
2026-05-07 12:00 50.11619 13.98540 9654 ft 274 kts 181°
2026-05-07 12:00 50.09736 13.99150 10362 ft 283 kts 163°
2026-05-07 12:00 50.07881 14.00387 10765 ft 300 kts 159°
2026-05-07 12:00 50.05933 14.01773 11326 ft 310 kts 159°
2026-05-07 12:01 50.03985 14.03159 12031 ft 315 kts 159°
2026-05-07 12:01 50.01987 14.04568 12794 ft 317 kts 158°
2026-05-07 12:01 49.99960 14.05987 13560 ft 321 kts 158°
2026-05-07 12:01 49.97936 14.07398 14337 ft 323 kts 158°
2026-05-07 12:02 49.95886 14.08823 15093 ft 327 kts 158°
2026-05-07 12:02 49.93812 14.10265 15869 ft 329 kts 158°
2026-05-07 12:02 49.91702 14.11729 16629 ft 332 kts 158°
2026-05-07 12:02 49.89611 14.13179 17343 ft 335 kts 158°
2026-05-07 12:03 49.87501 14.14765 18046 ft 340 kts 153°
2026-05-07 12:03 49.85525 14.16837 18714 ft 347 kts 142°
2026-05-07 12:03 49.83845 14.19492 19477 ft 351 kts 133°
2026-05-07 12:03 49.82319 14.22424 20144 ft 355 kts 130°
2026-05-07 12:04 49.80830 14.25488 20802 ft 358 kts 130°
2026-05-07 12:04 49.79356 14.28586 21450 ft 361 kts 130°
2026-05-07 12:04 49.77849 14.31747 22107 ft 364 kts 130°
2026-05-07 12:04 49.76337 14.34894 22740 ft 366 kts 131°
2026-05-07 12:05 49.74814 14.38038 23333 ft 369 kts 131°
2026-05-07 12:05 49.73266 14.41213 23914 ft 372 kts 131°
2026-05-07 12:05 49.71711 14.44384 24476 ft 374 kts 132°
2026-05-07 12:05 49.70135 14.47589 24979 ft 378 kts 132°
2026-05-07 12:06 49.68550 14.50808 25532 ft 379 kts 132°
2026-05-07 12:06 49.66946 14.54062 25988 ft 383 kts 132°
2026-05-07 12:06 49.65383 14.57389 26485 ft 385 kts 133°
2026-05-07 12:06 49.63597 14.60418 27035 ft 377 kts 143°
2026-05-07 12:07 49.61540 14.62824 27582 ft 370 kts 152°
2026-05-07 12:07 49.59338 14.64878 28014 ft 371 kts 154°
2026-05-07 12:07 49.57135 14.66940 28407 ft 376 kts 153°
2026-05-07 12:07 49.54939 14.69199 28905 ft 377 kts 152°
2026-05-07 12:08 49.52807 14.71491 29345 ft 379 kts 151°
2026-05-07 12:08 49.50657 14.73836 29741 ft 381 kts 151°
2026-05-07 12:08 49.48467 14.76223 30147 ft 383 kts 151°
2026-05-07 12:08 49.46304 14.78571 30597 ft 383 kts 152°
2026-05-07 12:09 49.44107 14.80938 30852 ft 388 kts 151°
2026-05-07 12:09 49.41898 14.83305 31191 ft 390 kts 151°
2026-05-07 12:09 49.39655 14.85701 31485 ft 393 kts 151°
2026-05-07 12:09 49.37421 14.88083 31838 ft 395 kts 151°
2026-05-07 12:10 49.35150 14.90497 32045 ft 400 kts 151°
2026-05-07 12:10 49.32854 14.92936 32455 ft 400 kts 151°
2026-05-07 12:10 49.30562 14.95366 32661 ft 405 kts 151°
2026-05-07 12:10 49.28235 14.97829 32938 ft 408 kts 151°
2026-05-07 12:11 49.25887 15.00311 33233 ft 411 kts 151°
2026-05-07 12:11 49.23544 15.02788 33496 ft 414 kts 151°
2026-05-07 12:11 49.21192 15.05271 33748 ft 417 kts 151°
2026-05-07 12:11 49.18797 15.07796 33978 ft 420 kts 151°
2026-05-07 12:12 49.16375 15.10345 34157 ft 424 kts 151°
2026-05-07 12:12 49.13956 15.12888 34316 ft 425 kts 151°
2026-05-07 12:12 49.11520 15.15450 34458 ft 423 kts 151°
2026-05-07 12:12 49.09112 15.17984 34632 ft 422 kts 151°
2026-05-07 12:13 49.06703 15.20514 34781 ft 421 kts 151°
2026-05-07 12:13 49.04289 15.23047 34922 ft 422 kts 151°
2026-05-07 12:13 49.01849 15.25600 34971 ft 425 kts 151°
2026-05-07 12:14 48.97032 15.30635 34985 ft 419 kts 151°
2026-05-07 12:14 48.92200 15.35578 34957 ft 417 kts 154°
2026-05-07 12:15 48.86972 15.39156 34969 ft 407 kts 169°
2026-05-07 12:15 48.81489 15.40838 34984 ft 404 kts 175°
2026-05-07 12:16 48.75933 15.42080 34963 ft 402 kts 176°
2026-05-07 12:16 48.70418 15.43294 34980 ft 403 kts 175°
2026-05-07 12:17 48.64865 15.44564 34968 ft 402 kts 175°
2026-05-07 12:17 48.59376 15.45844 34964 ft 402 kts 175°
2026-05-07 12:18 48.53836 15.47148 34985 ft 404 kts 175°
2026-05-07 12:18 48.48331 15.48448 34973 ft 401 kts 175°
2026-05-07 12:19 48.42803 15.49750 34963 ft 401 kts 175°
2026-05-07 12:19 48.37268 15.51052 34970 ft 401 kts 175°
2026-05-07 12:20 48.31777 15.52341 34960 ft 402 kts 175°
2026-05-07 12:20 48.26265 15.53631 34966 ft 401 kts 175°
2026-05-07 12:21 48.20751 15.54918 34950 ft 401 kts 175°
2026-05-07 12:21 48.15250 15.56203 34969 ft 402 kts 175°
2026-05-07 12:22 48.09742 15.57486 34951 ft 398 kts 175°
2026-05-07 12:22 48.04259 15.58758 34959 ft 400 kts 175°
2026-05-07 12:23 47.98768 15.60025 34965 ft 400 kts 175°
2026-05-07 12:23 47.93254 15.61299 34962 ft 401 kts 175°
2026-05-07 12:24 47.87726 15.62574 34961 ft 402 kts 175°
2026-05-07 12:24 47.82216 15.63841 34966 ft 400 kts 175°
2026-05-07 12:25 47.76724 15.65101 34951 ft 401 kts 176°
2026-05-07 12:25 47.71231 15.66359 34974 ft 401 kts 176°
2026-05-07 12:26 47.65704 15.67622 34959 ft 401 kts 176°
2026-05-07 12:26 47.60212 15.68875 34964 ft 402 kts 176°
2026-05-07 12:27 47.54644 15.70143 34963 ft 401 kts 176°
2026-05-07 12:27 47.49162 15.71391 34960 ft 401 kts 176°
2026-05-07 12:28 47.43640 15.72642 34962 ft 402 kts 176°
2026-05-07 12:28 47.38110 15.73891 34919 ft 403 kts 176°
2026-05-07 12:29 47.32564 15.75142 34965 ft 403 kts 176°
2026-05-07 12:29 47.27043 15.76386 34960 ft 402 kts 176°
2026-05-07 12:30 47.21495 15.77632 34936 ft 402 kts 176°
2026-05-07 12:30 47.15963 15.78873 34947 ft 403 kts 176°
2026-05-07 12:31 47.10459 15.80104 34932 ft 402 kts 177°
2026-05-07 12:31 47.04915 15.81340 34930 ft 404 kts 177°
2026-05-07 12:32 46.99316 15.82587 34911 ft 406 kts 177°
2026-05-07 12:32 46.93737 15.83826 34913 ft 406 kts 177°
2026-05-07 12:33 46.85339 15.85690 34926 ft 407 kts 177°
2026-05-07 12:33 46.79769 15.86925 34915 ft 406 kts 177°
2026-05-07 12:34 46.74192 15.88156 34914 ft 404 kts 177°
2026-05-07 12:34 46.68600 15.89386 34945 ft 406 kts 177°
2026-05-07 12:35 46.63061 15.90604 34935 ft 403 kts 177°
2026-05-07 12:35 46.57493 15.91825 34951 ft 405 kts 177°
2026-05-07 12:36 46.51933 15.93040 34962 ft 405 kts 178°
2026-05-07 12:36 46.46387 15.94253 34955 ft 404 kts 178°
2026-05-07 12:37 46.40807 15.95468 34961 ft 405 kts 178°
2026-05-07 12:37 46.35259 15.96676 34965 ft 402 kts 178°
2026-05-07 12:38 46.29711 15.97504 34949 ft 398 kts 184°
2026-05-07 12:38 46.24211 15.97354 34957 ft 395 kts 188°
2026-05-07 12:39 46.18720 15.96939 34956 ft 395 kts 189°
2026-05-07 12:39 46.13250 15.96526 34944 ft 392 kts 188°
2026-05-07 12:40 46.07771 15.96141 34967 ft 394 kts 188°
2026-05-07 12:40 46.02319 15.95780 34959 ft 395 kts 188°
2026-05-07 12:41 45.96825 15.95425 34969 ft 395 kts 188°
2026-05-07 12:41 45.91333 15.95074 34964 ft 396 kts 189°
2026-05-07 12:42 45.85815 15.94727 34975 ft 397 kts 188°
2026-05-07 12:42 45.80249 15.94374 34969 ft 398 kts 189°
2026-05-07 12:43 45.74724 15.94025 34972 ft 399 kts 188°
2026-05-07 12:43 45.69155 15.93671 34980 ft 401 kts 188°
2026-05-07 12:44 45.63619 15.93323 34983 ft 400 kts 188°
2026-05-07 12:44 45.58080 15.92977 34973 ft 400 kts 188°
2026-05-07 12:45 45.52487 15.92626 34968 ft 399 kts 188°
2026-05-07 12:45 45.46934 15.92276 34978 ft 402 kts 188°
2026-05-07 12:46 45.41328 15.91922 34979 ft 404 kts 188°
2026-05-07 12:46 45.35707 15.91572 34978 ft 402 kts 188°
2026-05-07 12:47 45.30089 15.91219 34983 ft 406 kts 188°
2026-05-07 12:47 45.24446 15.90868 34983 ft 404 kts 188°
2026-05-07 12:48 45.18827 15.90533 34986 ft 408 kts 188°
2026-05-07 12:48 45.13130 15.90238 34995 ft 409 kts 187°
2026-05-07 12:49 45.07469 15.89959 34982 ft 408 kts 188°
2026-05-07 12:49 45.01774 15.89672 34979 ft 409 kts 188°
2026-05-07 12:50 44.96057 15.89382 34982 ft 409 kts 187°
2026-05-07 12:50 44.90337 15.89089 34683 ft 411 kts 187°
2026-05-07 12:51 44.87503 15.88948 34434 ft 407 kts 187°
2026-05-07 12:51 44.84682 15.88808 34164 ft 405 kts 188°
2026-05-07 12:51 44.81844 15.88664 33891 ft 407 kts 188°
2026-05-07 12:51 44.78999 15.88515 33621 ft 410 kts 188°
2026-05-07 12:52 44.76166 15.88368 33351 ft 412 kts 187°
2026-05-07 12:52 44.73280 15.88220 33075 ft 411 kts 187°
2026-05-07 12:52 44.70437 15.88077 32804 ft 408 kts 187°
2026-05-07 12:52 44.67623 15.87935 32534 ft 405 kts 187°
2026-05-07 12:53 44.64824 15.87796 32265 ft 404 kts 187°
2026-05-07 12:53 44.61995 15.87653 31992 ft 402 kts 187°
2026-05-07 12:53 44.59224 15.87514 31723 ft 400 kts 187°
2026-05-07 12:53 44.56455 15.87375 31452 ft 398 kts 187°
2026-05-07 12:54 44.53689 15.87236 31181 ft 396 kts 187°
2026-05-07 12:54 44.50931 15.87097 30912 ft 396 kts 187°
2026-05-07 12:54 44.48176 15.86958 30643 ft 395 kts 187°
2026-05-07 12:54 44.45411 15.86820 30367 ft 391 kts 187°
2026-05-07 12:55 44.42735 15.86686 30096 ft 390 kts 187°
2026-05-07 12:55 44.40026 15.86549 29826 ft 390 kts 187°
2026-05-07 12:55 44.37288 15.86411 29548 ft 387 kts 187°
2026-05-07 12:55 44.34603 15.86276 29276 ft 386 kts 187°
2026-05-07 12:56 44.31952 15.86142 29006 ft 385 kts 187°
2026-05-07 12:56 44.29273 15.86008 28732 ft 383 kts 187°
2026-05-07 12:56 44.26627 15.85876 28461 ft 382 kts 187°
2026-05-07 12:56 44.23947 15.85742 28186 ft 381 kts 187°
2026-05-07 12:57 44.21308 15.85610 27914 ft 380 kts 187°
2026-05-07 12:57 44.18668 15.85479 27643 ft 380 kts 187°
2026-05-07 12:57 44.16042 15.85443 27371 ft 380 kts 183°
2026-05-07 12:57 44.13392 15.85862 27081 ft 383 kts 173°
2026-05-07 12:58 44.10885 15.86976 26735 ft 383 kts 163°
2026-05-07 12:58 44.08449 15.88526 26256 ft 381 kts 160°
2026-05-07 12:58 44.06117 15.90187 25747 ft 379 kts 159°
2026-05-07 12:58 44.03809 15.91896 25233 ft 377 kts 158°
2026-05-07 12:59 44.01510 15.93606 24713 ft 374 kts 158°
2026-05-07 12:59 43.99230 15.95289 24202 ft 370 kts 158°
2026-05-07 12:59 43.96943 15.96959 23684 ft 367 kts 158°
2026-05-07 12:59 43.94711 15.98574 23191 ft 364 kts 158°
2026-05-07 13:00 43.92471 16.00183 22688 ft 362 kts 158°
2026-05-07 13:00 43.90252 16.01770 22194 ft 359 kts 158°
2026-05-07 13:00 43.88021 16.03360 21686 ft 358 kts 158°
2026-05-07 13:00 43.85813 16.04931 21184 ft 356 kts 158°
2026-05-07 13:01 43.83649 16.06469 20690 ft 354 kts 158°
2026-05-07 13:01 43.81462 16.08021 20193 ft 352 kts 158°
2026-05-07 13:01 43.79284 16.09566 19696 ft 350 kts 158°
2026-05-07 13:01 43.77134 16.11091 19209 ft 348 kts 157°
2026-05-07 13:02 43.74979 16.12617 18712 ft 346 kts 157°
2026-05-07 13:02 43.72838 16.14133 18221 ft 345 kts 157°
2026-05-07 13:02 43.70731 16.15624 17745 ft 344 kts 157°
2026-05-07 13:02 43.68601 16.17130 17235 ft 342 kts 157°
2026-05-07 13:03 43.66489 16.18620 16747 ft 341 kts 157°
2026-05-07 13:03 43.64373 16.20113 16256 ft 339 kts 156°
2026-05-07 13:03 43.62295 16.21579 15781 ft 337 kts 156°
2026-05-07 13:03 43.60223 16.23041 15514 ft 328 kts 156°
2026-05-07 13:04 43.58217 16.24458 15380 ft 316 kts 156°
2026-05-07 13:04 43.56276 16.25827 14964 ft 316 kts 156°
2026-05-07 13:04 43.54325 16.27196 14529 ft 315 kts 156°
2026-05-07 13:04 43.52372 16.28563 14118 ft 314 kts 156°
2026-05-07 13:05 43.50463 16.29994 13712 ft 314 kts 152°
2026-05-07 13:05 43.48688 16.31700 13357 ft 312 kts 143°
2026-05-07 13:05 43.47060 16.33674 12860 ft 308 kts 139°
2026-05-07 13:05 43.45543 16.35710 12261 ft 306 kts 137°
2026-05-07 13:06 43.44045 16.37764 11646 ft 303 kts 137°
2026-05-07 13:06 43.42511 16.39723 11019 ft 299 kts 144°
2026-05-07 13:06 43.40751 16.41056 10415 ft 292 kts 167°
2026-05-07 13:06 43.38759 16.41229 9778 ft 285 kts 191°
2026-05-07 13:07 43.36886 16.40420 9163 ft 279 kts 205°
2026-05-07 13:07 43.35142 16.39354 8538 ft 277 kts 204°
2026-05-07 13:07 43.33422 16.38225 8075 ft 271 kts 212°
2026-05-07 13:07 43.31938 16.36657 7539 ft 267 kts 222°
2026-05-07 13:08 43.30593 16.34921 6956 ft 265 kts 224°
2026-05-07 13:08 43.29297 16.33178 6372 ft 264 kts 225°
2026-05-07 13:08 43.28194 16.31171 5832 ft 265 kts 245°
2026-05-07 13:08 43.27785 16.28769 5428 ft 257 kts 271°
2026-05-07 13:09 43.28162 16.26475 5181 ft 246 kts 295°
2026-05-07 13:09 43.29098 16.24554 4936 ft 235 kts 313°
2026-05-07 13:09 43.30346 16.23235 4702 ft 227 kts 336°
2026-05-07 13:09 43.31820 16.22548 4468 ft 216 kts 345°
2026-05-07 13:10 43.33247 16.22108 4288 ft 208 kts 356°
2026-05-07 13:10 43.34654 16.22276 4071 ft 203 kts 22°
2026-05-07 13:10 43.35815 16.23246 3955 ft 187 kts 43°
2026-05-07 13:10 43.36777 16.24453 3962 ft 190 kts 44°
2026-05-07 13:11 43.37720 16.25604 3993 ft 179 kts 44°
2026-05-07 13:11 43.38641 16.26708 3966 ft 170 kts 44°
2026-05-07 13:11 43.39512 16.27758 3837 ft 162 kts 45°
2026-05-07 13:11 43.40356 16.28787 3753 ft 162 kts 45°
2026-05-07 13:12 43.41203 16.29820 3619 ft 162 kts 45°
2026-05-07 13:12 43.42042 16.30840 3477 ft 161 kts 45°
2026-05-07 13:12 43.42884 16.31861 3336 ft 161 kts 45°
2026-05-07 13:12 43.43714 16.32871 3202 ft 159 kts 45°
2026-05-07 13:13 43.44535 16.33870 3069 ft 158 kts 45°
2026-05-07 13:13 43.45362 16.34874 3038 ft 157 kts 46°
2026-05-07 13:13 43.46180 16.35869 3038 ft 157 kts 45°
2026-05-07 13:13 43.46998 16.36863 3031 ft 157 kts 45°
2026-05-07 13:14 43.47827 16.37874 2788 ft 159 kts 45°
2026-05-07 13:14 43.48645 16.38865 2461 ft 157 kts 45°
2026-05-07 13:14 43.49512 16.39790 2126 ft 161 kts 28°
2026-05-07 13:14 43.50646 16.39909 1799 ft 167 kts 350°
2026-05-07 13:15 43.51760 16.39501 1701 ft 162 kts 347°
2026-05-07 13:15 43.52846 16.39103 1470 ft 165 kts 346°
2026-05-07 13:15 43.53909 16.38508 1131 ft 165 kts 333°
2026-05-07 13:15 43.54825 16.37567 799 ft 165 kts 318°
2026-05-07 13:16 43.55562 16.36412 656 ft 154 kts 304°
2026-05-07 13:16 43.55976 16.35021 535 ft 164 kts 278°
2026-05-07 13:16 43.55867 16.33500 525 ft 156 kts 246°
2026-05-07 13:16 43.55268 16.32237 362 ft 157 kts 227°
2026-05-07 13:17 43.54597 16.31058 107 ft 158 kts 229°
2026-05-07 13:17 43.53992 16.29974 61 ft 103 kts 232°
2026-05-07 13:17 43.53663 16.29381 69 ft 60 kts 231°
2026-05-07 13:17 43.53470 16.29003 73 ft 36 kts 237°
2026-05-07 13:18 43.53421 16.28953 71 ft 2 kts 64°
2026-05-07 13:18 43.53464 16.29030 72 ft 18 kts 50°
2026-05-07 13:18 43.53550 16.29180 71 ft 20 kts 52°
2026-05-07 13:18 43.53640 16.29341 69 ft 21 kts 52°
2026-05-07 13:19 43.53696 16.29526 64 ft 15 kts 88°
2026-05-07 13:19 43.53689 16.29604 60 ft 8 kts 107°
2026-05-07 13:19 43.53693 16.29673 59 ft 6 kts 60°
2026-05-07 13:19 43.53714 16.29729 58 ft 6 kts 87°
2026-05-07 13:20 43.53700 16.29784 57 ft 3 kts 116°
2026-05-07 13:20 43.53693 16.29803 56 ft 0 kts 115°